Accueil
METAR-TAF:

METAR-TAF

Aéroports :

Dübendorf, Suisse

latitude: 47-23-55N, longitude: 8-38-53E, altitude: 448 m

Observation

Le bulletin a été fait il y a 55 minutes, à 08:50 UTC
Vent 4 kt de nord-est, variant entre nord et est/nord-est
Température 4°C
Humidité 75%
Pression 1024 hPa
Visibilité 10 km ou plus
Ciel couvert à une hauteur de 2200 ft

METAR: LSMD 170850Z AUTO 04004KT 360V060 9999NDV OVC022 04/M00 Q1024 RMK

Heure: 10:45 (09:45 UTC)


TAF: absent

Observations et prévisions météorologiques de plus de 4000 aéroports (messages METAR et TAF).

Les stations disponibles sont représentées par des disques jaunes et rouges sur la carte.

Passer la souris dessus pour voir le nom de la station.

Cliquer dessus pour voir les observations et prévisions météorologiques.

Pour changer de carte: cliquez sur les boutons verts avec une croix noire pour zoomer, sur le bouton vert avec un tiret pour effectuer un zoom arrière, ou sur les flèches vertes pour les cartes adjacentes.


METAR-TAF: